Location: Asheville, NC
(35.6000°N, 82.5500°W)
Time: 15:56:12
(UTC-05:00)

Vanguard 2 - Pass Details

Date: 09 December 2017
Orbit: 553 x 2940 km, 32.9° (Epoch: 20 January)

Event Time Altitude Azimuth Distance (km) Brightness Sun altitude
Rises 16:58:49 0° 240° (WSW) 3,881 15.1 2.4°
Reaches altitude 10° 17:02:11 10° 233° (SW) 2,586 12.6 1.8°
Maximum altitude 17:07:29 38° 166° (SSE) 1,040 8.4 0.9°
Drops below altitude 10° 17:11:24 10° 97° (E) 1,905 9.1 0.2°
Sets 17:13:31 0° 88° (E) 2,734 9.8 -0.2°
